Theta_e
304 304 303 303 302 303 303 304 305 306 307 307 308 309 308 309 309 313 321 319 320 326 328 328 329 329 329 331 334 333 334 335 338 340 339 339 338 337 338 340 340 340 345 341 344 346 346 340 339 341 344 339 338 337
304 304 303 303 302 302 303 304 305 306 307 308 308 308 308 308 309 312 321 318 319 321 325 322 323 324 326 327 329 332 335 337 337 337 337 336 337 336 343 339 338 340 341 342 346 343 342 340 340 338 337 337 337 337
304 303 303 303 303 303 303 304 305 305 306 307 308 308 308 308 308 308 315 319 319 323 325 326 326 326 325 324 324 326 328 331 332 333 335 336 342 337 339 339 342 339 338 343 346 342 340 338 339 339 337 337 335 335
303 303 303 303 303 303 303 303 304 305 307 307 308 308 308 308 308 309 315 318 321 324 326 326 325 325 325 324 325 325 325 324 326 328 332 334 336 334 334 332 335 333 337 342 343 340 340 339 337 335 334 333 332 333
302 303 303 304 303 303 303 303 304 306 307 307 307 308 308 309 310 311 316 321 321 323 328 328 325 324 324 326 327 325 325 326 325 326 328 330 330 330 330 330 330 330 332 332 336 338 337 335 334 332 332 332 333 334
303 303 303 303 303 303 303 303 304 306 307 307 307 309 310 311 311 317 327 324 323 323 326 328 327 328 327 327 328 329 329 328 327 327 329 329 326 330 330 333 333 330 332 331 334 332 333 332 332 333 333 333 333 335
304 303 303 303 303 303 303 304 304 306 306 307 308 309 311 309 315 320 323 320 316 320 328 330 329 329 328 325 328 330 330 328 328 329 330 329 328 328 331 333 330 329 331 331 332 331 332 331 333 333 333 333 332 332
305 304 303 303 303 303 304 304 305 306 307 310 310 310 311 313 314 319 319 317 318 321 324 328 330 328 328 329 329 332 333 332 331 329 329 329 329 330 332 330 328 328 331 332 331 330 331 332 334 334 333 332 333 334
305 304 303 303 303 303 304 305 306 306 309 312 313 313 316 318 325 322 317 318 321 323 331 330 332 331 327 325 326 327 327 332 333 332 331 330 330 332 332 333 332 331 334 333 333 333 333 333 333 332 333 333 334 335
305 305 303 303 303 304 304 306 306 307 312 314 317 320 328 322 316 317 323 327 327 326 323 324 325 326 327 331 331 331 330 327 332 333 331 332 333 333 330 329 333 339 336 334 335 335 334 334 332 332 333 334 334 335
305 305 303 303 303 304 306 306 306 308 312 314 315 321 315 314 318 326 328 329 330 330 329 328 328 331 329 331 332 331 331 329 328 331 334 335 334 337 337 333 337 336 334 332 332 332 331 331 332 334 336 336 335 335
305 305 303 303 303 305 305 305 305 308 309 309 308 310 315 321 325 327 328 328 328 331 331 330 328 328 328 329 331 331 330 328 328 329 334 335 342 337 336 337 334 332 332 331 331 331 331 332 335 336 338 338 337 336
305 305 303 303 304 305 306 306 306 307 309 313 313 320 322 324 326 327 329 329 330 328 328 328 327 326 326 328 333 331 331 328 327 329 333 344 339 330 329 335 334 331 331 331 331 332 333 335 335 336 337 337 338 336
305 304 303 303 306 307 307 306 306 308 311 318 323 320 322 324 324 326 327 330 328 327 327 325 325 325 325 330 330 334 332 332 332 332 338 340 331 334 336 339 335 335 333 333 334 335 335 335 336 335 336 337 338 339
304 303 303 307 307 307 307 306 308 311 311 315 320 320 323 322 323 324 323 324 324 323 324 324 325 324 325 328 331 332 335 333 336 342 341 342 339 338 340 339 337 337 336 336 335 335 336 335 335 337 336 336 338 338
303 304 308 308 307 307 307 308 311 312 310 312 316 320 321 322 322 322 323 323 323 323 323 323 326 327 328 330 333 333 334 337 336 333 331 334 339 339 341 337 336 336 336 333 333 335 334 334 336 336 336 336 337 337
302 307 308 307 307 307 309 309 312 313 313 313 317 318 319 320 321 321 321 321 321 322 323 323 325 330 329 333 332 333 335 334 331 330 331 336 336 339 339 336 334 333 330 331 330 336 335 335 334 334 327 324 331 335
305 308 308 307 307 308 311 311 313 313 313 315 317 319 321 321 321 321 321 321 322 324 323 323 325 326 328 330 331 332 332 330 327 328 330 332 334 338 335 337 336 334 333 333 334 337 336 336 336 333 328 324 334 337
305 307 308 307 306 307 311 312 312 314 313 315 317 318 319 320 320 321 321 322 320 321 322 322 322 324 329 332 331 329 328 327 326 326 329 331 333 334 335 333 333 334 329 333 335 333 331 328 331 333 332 333 333 331
308 308 307 307 307 311 312 314 312 314 315 316 316 318 319 320 321 322 322 322 320 320 321 322 323 322 327 326 326 325 326 327 327 327 328 330 332 333 334 333 332 333 334 333 330 328 331 332 330 331 332 333 332 333
308 311 308 308 311 311 312 314 314 314 314 316 318 320 321 322 322 324 324 322 322 323 323 322 323 325 327 327 326 326 328 327 329 328 328 328 330 330 332 331 330 331 332 331 333 330 330 329 327 328 331 330 331 330
310 309 311 309 312 311 312 312 313 313 314 316 317 320 321 324 327 329 325 326 324 327 325 325 328 331 332 332 332 330 330 328 326 325 324 326 329 332 333 331 332 333 332 332 332 332 332 324 324 328 333 333 332 333
308 309 311 312 313 313 312 311 313 313 315 317 319 321 323 325 324 326 328 324 325 323 323 325 326 327 330 329 329 329 328 328 331 332 333 332 327 327 326 324 326 329 335 332 330 332 331 330 329 327 332 330 330 331
308 311 312 313 313 313 312 312 312 314 315 318 319 324 326 327 326 329 327 326 325 324 325 325 326 327 327 329 330 329 330 331 333 333 331 329 329 328 327 328 329 328 327 328 332 331 330 331 330 331 332 333 334 334
310 311 312 311 312 313 313 313 314 316 318 319 320 322 326 328 329 328 328 329 327 327 326 324 325 325 328 330 333 330 329 329 331 335 330 330 330 330 330 331 331 326 327 330 331 331 331 332 333 332 329 324 325 332
313 311 314 313 313 313 314 315 317 319 319 320 322 322 324 328 327 325 324 327 325 326 325 323 324 325 326 328 329 327 327 326 329 332 330 329 331 331 332 333 334 333 330 331 331 332 332 333 333 333 331 329 329 329
310 313 313 312 314 314 314 314 316 317 318 320 323 323 326 326 326 324 326 323 324 321 320 321 323 322 323 323 324 323 324 323 325 327 328 330 327 329 329 328 331 331 329 330 330 330 331 332 331 329 328 327 326 325
313 313 314 314 314 313 314 315 315 317 319 322 323 324 324 326 327 324 321 322 321 319 319 319 319 318 319 319 320 322 325 325 326 326 328 329 328 329 329 329 329 327 324 324 325 326 327 327 326 324 324 322 321 320
312 313 312 315 314 315 316 316 315 316 318 321 324 323 324 322 322 323 323 324 320 319 320 319 318 319 322 322 323 324 324 323 325 327 329 332 332 327 326 327 328 326 326 324 322 322 321 321 322 322 321 320 319 318
312 311 313 313 314 315 314 314 315 316 316 317 319 320 320 321 321 323 323 322 318 317 317 317 320 321 322 322 322 322 322 323 323 324 326 328 327 325 325 324 323 323 322 321 321 320 319 319 318 317 316 316 315 315
312 313 313 313 314 314 314 314 314 315 316 316 317 317 319 320 323 323 322 319 316 317 320 321 321 322 322 323 322 322 322 321 321 321 322 324 324 323 323 322 321 319 319 318 317 317 316 316 315 314 314 313 313 313
312 313 314 314 313 314 315 315 316 316 318 317 317 318 319 320 324 325 320 320 321 319 319 320 323 323 322 323 322 320 317 315 313 313 314 318 319 318 319 319 318 317 316 316 315 314 314 313 313 313 313 312 312 311
313 313 314 314 314 315 316 317 317 318 319 319 320 320 320 324 325 321 318 317 315 319 319 320 321 320 321 322 320 317 313 312 311 311 310 310 311 312 313 315 316 315 314 314 314 313 313 312 312 311 311 310 310 310
Wind_Speed
17 18 19 20 22 24 25 27 29 29 29 29 27 28 31 30 23 20 7 10 9 5 12 12 12 11 11 10 9 11 9 6 6 10 11 11 13 14 17 17 16 16 12 12 11 15 19 12 2 4 5 1 4 8
16 18 20 20 21 23 25 27 29 30 29 28 26 26 28 27 22 13 7 13 11 5 9 20 18 17 15 14 10 8 12 10 4 6 7 7 12 13 14 14 14 12 12 10 12 12 4 4 3 5 7 6 7 7
16 18 20 21 22 24 26 28 30 30 30 28 26 26 27 24 17 12 8 11 15 5 12 14 10 14 9 14 16 10 10 14 11 11 9 9 12 10 12 12 16 15 12 12 12 13 16 13 13 13 11 9 9 10
16 18 20 21 22 24 27 29 31 32 31 28 27 27 25 20 15 10 6 10 10 7 4 2 4 6 3 7 8 12 15 20 14 8 9 10 12 9 13 17 15 13 13 14 14 11 13 12 11 8 8 8 11 12
16 18 20 22 23 25 27 29 31 32 32 31 29 28 23 17 12 8 6 5 4 6 5 8 22 18 9 6 12 10 11 11 8 9 10 11 11 12 12 15 15 14 14 11 11 12 11 10 13 14 13 11 12 13
17 19 20 22 23 25 27 29 32 32 32 30 28 24 17 12 9 3 4 3 5 8 4 4 7 5 4 6 8 9 8 9 9 9 8 11 18 13 12 14 14 14 15 14 11 7 10 12 11 10 11 11 14 12
17 19 21 22 24 25 28 30 32 32 31 31 25 18 11 7 2 5 4 4 8 7 3 5 5 6 3 8 7 7 10 6 8 9 11 12 12 11 12 14 15 18 15 14 18 11 12 13 12 13 12 13 13 15
17 19 21 22 24 25 28 31 32 32 33 26 18 12 5 2 2 2 2 8 7 6 4 4 4 6 5 6 7 2 4 7 8 9 10 11 11 10 12 17 19 18 11 14 15 12 12 12 12 10 12 14 14 14
17 19 21 22 24 25 28 31 30 32 30 17 15 10 4 4 3 4 10 8 3 5 5 4 6 4 4 7 6 7 8 8 9 10 10 10 11 12 16 14 15 14 15 14 9 8 12 14 14 14 14 15 16 15
18 19 21 22 23 25 28 28 28 31 22 17 8 5 4 5 11 9 2 4 6 5 4 5 6 8 7 6 7 6 5 7 8 9 7 11 12 16 18 17 10 8 8 9 11 10 10 11 12 12 13 15 13 15
18 19 21 22 22 24 27 22 26 28 15 12 8 3 9 12 5 5 3 4 4 4 5 6 3 7 6 7 8 4 5 5 5 8 10 11 10 6 6 2 7 7 3 3 5 7 10 12 13 14 14 15 15 13
18 19 20 21 21 22 20 22 23 19 15 12 14 12 7 4 4 4 4 3 3 2 3 5 3 5 3 3 4 4 5 4 6 4 3 4 9 21 25 11 8 6 7 7 7 9 11 14 11 11 11 14 15 20
18 20 20 20 20 15 17 20 21 21 20 2 4 4 2 1 3 5 6 4 3 3 2 5 6 5 4 1 3 4 5 6 6 9 6 5 13 12 8 20 11 7 7 9 11 12 12 11 22 16 9 19 23 13
19 20 20 19 12 14 18 20 19 15 6 4 3 3 4 5 5 3 5 5 3 3 6 7 7 4 5 4 4 4 5 6 8 10 2 6 6 15 16 8 10 10 11 12 12 8 10 11 7 15 19 18 18 14
19 20 18 8 11 20 19 16 12 7 4 3 5 3 6 7 3 4 3 4 4 4 5 6 7 6 7 3 3 4 4 5 4 6 6 5 6 4 8 11 11 12 9 10 9 5 7 12 13 12 19 18 21 17
18 16 2 7 18 22 16 15 8 3 2 3 4 5 6 5 7 5 5 4 6 5 5 3 3 4 4 3 4 6 5 4 4 6 7 9 9 10 9 9 9 10 11 7 20 10 13 13 13 15 18 23 15 16
13 4 8 18 19 15 12 5 2 3 3 3 5 7 8 7 6 6 5 5 5 5 5 1 4 2 5 4 3 2 3 3 4 6 9 9 10 11 9 7 7 8 10 11 12 20 15 17 15 14 11 27 39 15
7 9 16 14 16 12 3 4 3 3 5 5 7 8 6 4 5 5 4 6 5 3 4 3 4 6 4 4 3 3 5 6 5 7 8 9 12 13 13 8 9 12 16 25 25 21 18 12 11 7 14 27 26 13
13 18 16 8 6 6 4 3 4 3 5 7 7 8 6 6 5 7 6 8 4 4 3 4 5 8 5 3 6 7 6 8 9 10 9 12 16 15 16 14 12 10 7 25 17 17 15 12 18 23 19 21 16 7
17 14 7 6 4 3 3 3 4 4 4 4 7 8 5 6 7 6 4 4 3 1 3 4 10 10 6 7 6 8 9 8 9 10 10 8 12 15 11 13 14 17 17 12 13 18 21 9 15 18 23 20 12 9
7 6 4 5 5 5 5 3 4 3 4 4 6 6 7 6 5 3 0 5 4 4 6 8 7 12 15 14 11 13 11 9 9 8 10 11 15 15 17 18 19 17 15 6 1 7 15 3 3 13 30 12 12 15
3 3 3 5 4 5 4 6 4 5 4 6 8 5 5 4 2 0 2 3 0 2 2 5 9 9 10 11 12 18 16 11 11 11 20 22 13 10 9 15 17 12 15 9 2 10 11 3 5 16 24 23 27 27
5 3 4 5 4 2 5 4 3 2 3 3 3 3 3 1 1 2 2 1 2 3 7 11 15 17 12 17 19 21 20 18 9 13 16 13 9 12 17 21 20 22 9 9 20 20 9 7 11 9 14 19 17 21
4 4 2 3 4 4 2 3 3 3 3 4 3 3 3 3 2 2 1 1 3 5 5 8 10 7 10 12 5 7 14 11 12 13 10 3 3 5 11 10 4 7 19 30 18 12 13 16 18 11 16 22 17 19
2 4 4 4 4 4 3 3 4 4 4 5 3 4 1 1 0 2 1 3 6 5 5 10 11 6 7 8 7 11 10 13 13 7 11 15 14 15 12 18 4 2 7 16 16 18 18 18 17 23 18 11 17 18
5 6 6 5 3 4 4 3 3 2 4 2 3 3 2 2 3 1 2 4 7 7 7 6 5 5 6 10 8 9 15 17 17 8 11 13 12 11 8 9 9 14 13 17 16 17 18 17 17 17 18 18 18 17
3 5 5 4 3 3 3 4 5 4 2 3 2 2 2 1 2 2 1 3 5 11 9 11 9 8 8 13 17 17 18 18 13 11 10 8 10 17 10 7 5 14 18 18 20 18 18 19 19 18 17 16 18 18
5 4 9 6 5 4 6 3 3 3 3 2 3 2 1 2 2 1 4 1 7 10 9 10 10 13 20 24 21 19 19 19 7 11 7 11 16 12 7 11 16 18 23 20 18 18 16 16 16 16 17 18 18 18
7 5 4 8 5 4 4 4 4 3 1 1 3 2 2 1 3 3 1 0 4 8 11 14 21 19 19 16 10 13 7 16 14 13 13 9 8 18 16 12 11 12 11 14 19 17 18 17 15 13 13 14 16 17
9 6 5 8 10 7 6 5 3 5 6 4 4 7 4 2 4 3 2 1 4 7 12 15 12 15 14 18 15 15 21 17 17 16 9 9 10 15 13 14 16 17 16 16 13 13 12 15 17 19 19 18 16 17
1 3 8 9 6 6 9 10 9 9 7 8 8 7 7 2 3 1 3 2 4 9 9 12 14 14 14 11 12 13 10 16 15 13 12 11 14 13 14 13 14 13 13 15 14 16 16 17 18 19 19 19 19 19
4 8 7 9 9 9 9 7 11 7 5 5 7 7 6 7 2 2 2 2 5 8 9 15 11 13 11 9 8 10 10 11 14 15 14 12 12 11 9 9 11 14 15 15 16 17 16 16 16 17 16 17 17 17
6 5 4 4 5 6 9 9 6 4 8 11 9 7 5 1 0 2 0 3 5 7 8 8 8 8 8 7 8 8 10 13 14 14 17 19 19 18 16 16 12 12 13 13 13 15 17 17 17 18 19 19 18 17
Wind_Direction
5 6 6 6 6 6 6 6 5 4 3 2 0 1 360 2 6 5 295 7 1 308 295 298 306 300 293 278 291 306 316 268 271 274 280 273 274 278 282 280 280 276 278 256 251 255 267 21 334 310 47 284 301 337
3 4 3 3 3 2 2 2 2 2 1 358 358 356 354 354 0 2 303 345 333 270 283 309 282 273 280 291 300 295 297 303 307 322 277 281 278 277 279 280 285 283 280 278 274 292 330 304 245 279 296 329 318 308
1 1 0 359 358 358 358 358 357 358 356 356 354 350 347 347 353 354 314 324 326 253 281 243 243 227 240 249 257 274 271 282 299 316 284 289 289 303 290 286 291 293 292 276 276 277 285 288 320 315 318 330 320 316
358 357 357 356 355 355 355 354 353 353 353 352 351 345 341 339 340 340 316 331 314 294 279 54 95 229 265 254 262 275 277 280 290 294 279 278 273 272 278 287 285 282 290 296 298 287 284 275 284 348 334 322 304 296
354 352 352 353 352 352 351 351 351 352 352 349 345 342 340 335 333 325 275 314 339 324 324 308 314 285 249 305 303 248 268 269 263 260 254 258 264 272 272 278 277 285 290 285 287 327 316 327 335 326 314 307 307 303
352 350 349 350 349 349 348 347 348 348 347 344 340 339 338 336 338 298 188 100 11 349 288 295 318 279 238 264 262 268 263 260 254 266 265 266 268 271 276 278 288 287 282 292 289 319 306 300 288 303 291 296 276 280
347 348 347 347 346 346 345 344 344 345 345 341 336 336 338 336 347 319 13 351 323 322 257 290 292 137 215 256 253 235 241 240 259 260 255 260 263 271 271 269 270 277 288 297 299 286 286 295 300 286 282 285 305 290
342 344 345 346 344 344 343 343 343 343 341 339 335 330 314 314 294 196 165 330 328 269 277 278 279 274 77 319 305 161 278 280 250 256 269 269 274 253 257 268 280 289 304 301 297 292 287 296 318 315 309 300 283 281
338 340 343 344 342 342 342 342 342 342 341 338 326 304 287 248 265 39 311 305 254 279 307 268 290 313 13 311 311 301 279 264 272 256 247 250 257 261 273 265 254 253 259 263 275 343 323 313 306 297 303 311 317 309
334 336 340 341 340 340 340 340 343 345 345 342 322 219 196 29 322 310 222 199 199 185 225 264 300 286 277 341 309 288 270 268 262 274 259 231 246 251 254 260 271 44 19 339 322 308 303 304 307 297 303 303 297 296
330 331 335 337 338 339 340 343 344 351 1 359 345 360 323 313 286 223 261 230 160 226 203 228 317 328 331 335 324 296 314 319 290 272 261 270 268 3 2 306 42 31 24 323 321 310 300 305 304 309 313 309 301 280
325 325 330 333 335 337 340 342 343 354 339 312 299 301 286 243 230 261 237 198 245 306 58 329 318 265 334 360 297 276 259 240 255 287 267 269 12 10 12 323 80 7 349 334 317 306 301 302 313 311 321 310 294 291
319 320 325 329 334 334 336 339 339 333 329 165 226 246 266 252 3 232 193 215 219 101 62 306 306 332 284 129 273 270 273 249 269 273 259 50 24 27 53 292 355 343 337 330 329 316 322 346 355 308 294 293 290 288
314 315 323 326 330 330 332 332 338 342 306 272 248 295 233 198 240 225 307 29 59 299 291 338 309 300 309 215 249 262 261 292 265 265 319 48 10 29 302 313 345 350 349 346 2 348 321 322 296 316 302 306 314 277
309 312 322 317 333 331 325 326 332 322 308 283 303 245 230 267 316 308 322 313 275 280 315 317 313 284 266 257 256 269 267 253 26 19 12 357 17 339 334 331 351 343 339 333 322 316 302 317 308 303 307 313 309 306
310 326 172 291 314 320 321 323 305 245 256 268 255 266 258 267 264 218 235 269 21 357 332 320 307 284 249 219 233 244 292 20 18 335 308 325 2 333 330 326 335 335 328 349 313 321 318 309 307 303 305 330 319 305
311 271 302 306 319 326 320 302 274 233 258 251 242 233 248 285 289 300 315 311 331 291 280 20 257 289 314 262 260 231 2 326 233 250 273 336 318 308 312 301 301 295 298 313 327 309 316 309 300 310 33 354 300 299
270 291 304 321 329 321 268 229 261 252 254 254 261 264 263 278 299 289 319 17 341 356 354 305 303 266 254 241 263 341 321 305 333 307 300 312 293 294 297 290 300 319 334 315 300 292 295 300 283 295 170 214 259 264
273 293 307 310 315 314 295 230 251 267 252 266 264 271 271 280 293 336 2 43 41 17 339 273 251 255 272 313 282 289 313 313 329 315 305 292 285 286 276 291 301 288 234 268 307 345 332 354 336 336 317 313 303 324
287 287 274 276 256 254 253 239 239 269 278 305 307 280 302 271 258 236 219 198 181 160 227 238 247 270 257 242 290 307 299 312 312 313 304 298 284 291 281 303 295 289 276 274 37 349 330 319 353 325 311 282 307 334
292 246 232 211 223 241 273 283 243 261 300 280 279 265 269 264 257 230 169 173 188 212 243 252 287 317 323 320 301 294 308 307 290 285 283 301 300 310 308 295 286 291 303 314 44 2 302 87 228 285 280 318 339 318
252 240 248 210 249 210 253 243 266 318 274 284 297 279 282 281 297 124 292 241 249 47 14 316 308 306 308 312 316 304 291 304 294 286 280 267 265 289 302 308 356 336 328 13 15 258 275 93 305 299 316 15 14 11
286 237 239 219 240 222 258 241 240 245 262 275 266 277 239 280 280 257 81 138 281 268 289 297 307 306 303 312 309 308 305 301 286 282 296 321 23 352 349 328 359 342 316 356 273 270 325 123 53 1 316 0 2 321
245 254 238 248 214 259 229 214 241 246 253 248 263 252 228 197 180 127 161 221 252 274 304 313 326 321 319 316 317 288 300 320 295 290 296 248 292 312 219 239 92 323 318 292 331 341 339 339 339 350 31 6 345 38
214 249 182 253 236 239 230 233 216 223 240 232 261 270 8 143 268 95 262 359 344 341 313 347 332 340 316 313 320 331 350 2 350 348 1 6 28 2 357 352 26 67 328 320 330 1 358 11 15 55 83 76 25 9
219 208 199 220 209 224 206 249 235 222 274 283 253 284 307 27 61 43 306 328 342 348 358 339 330 325 339 349 347 350 358 353 339 333 19 3 357 349 342 341 336 332 19 11 357 25 15 11 24 52 48 37 32 32
246 236 213 221 252 250 235 277 287 264 283 248 258 302 342 215 149 193 145 7 339 355 344 332 345 333 320 313 315 317 323 325 323 340 334 334 24 16 341 295 335 14 15 18 26 20 35 43 53 57 56 44 40 38
241 242 238 218 213 244 266 280 283 248 255 270 271 168 218 357 63 80 36 325 7 358 340 323 314 325 311 300 302 299 306 314 312 4 2 9 13 12 38 65 59 59 53 47 41 35 48 52 51 51 53 55 53 45
227 242 242 258 225 208 237 218 233 264 241 75 311 322 47 131 21 81 156 205 3 357 344 334 332 334 323 314 298 301 352 358 18 9 12 23 18 11 32 38 60 51 54 65 59 54 57 56 50 55 63 63 59 60
235 211 226 231 228 231 229 217 242 293 301 267 253 280 270 46 9 86 128 134 6 339 331 320 307 347 358 11 1 37 32 23 20 14 3 18 358 359 34 42 50 47 48 46 42 49 50 62 59 56 52 51 53 53
265 223 227 234 246 254 256 252 240 246 236 259 271 269 275 275 145 263 97 61 344 342 330 348 355 348 345 357 7 2 5 14 12 7 2 5 7 22 23 21 31 50 46 60 43 49 53 55 54 51 45 43 41 41
219 227 233 242 240 256 281 288 264 247 275 274 270 267 264 258 189 169 92 322 334 333 352 350 347 2 9 13 18 50 37 32 25 21 23 18 19 19 16 1 40 60 60 62 56 49 49 50 46 42 46 43 36 34
210 250 256 254 257 250 235 233 231 253 237 234 226 231 238 304 198 53 19 351 338 331 329 330 359 9 20 45 59 55 67 52 44 45 48 47 47 44 34 33 51 59 59 56 56 57 52 45 42 37 31 26 26 28